• In Moldova, Republic
  • List of Countries
  • For 7 days
  • Water Temperature
  • Satellite Maps
  • Weather Map
  • Weather Widgets
  • user-avatar
    Login

    Hourly Weather Oran

    Today, 23 September, Saturday

    Time Temperature Precipitation Wind Pressure Humidity
    00:00 +25°C° 0 mm 4 mps 752 mmHg 81%
    01:00 +25°C° 0 mm 4 mps 752 mmHg 82%
    02:00 +25°C° 0 mm 4 mps 752 mmHg 84%
    03:00 +25°C° 0 mm 4 mps 752 mmHg 85%
    04:00 +25°C° 0 mm 3 mps 752 mmHg 85%
    05:00 +25°C° 0 mm 3 mps 752 mmHg 85%
    06:00 +24°C° 0 mm 3 mps 752 mmHg 86%
    07:00 +25°C° 0 mm 3 mps 752 mmHg 80%
    08:00 +26°C° 0 mm 3 mps 753 mmHg 74%
    09:00 +27°C° 0 mm 3 mps 753 mmHg 68%
    10:00 +28°C° 0 mm 3 mps 753 mmHg 63%
    11:00 +29°C° 0 mm 4 mps 753 mmHg 57%
    12:00 +32°C° 0 mm 4 mps 753 mmHg 51%
    13:00 +32°C° 0 mm 5 mps 753 mmHg 52%
    14:00 +32°C° 0 mm 5 mps 752 mmHg 53%
    15:00 +32°C° 0 mm 5 mps 752 mmHg 53%
    16:00 +30°C° 0 mm 5 mps 752 mmHg 58%
    17:00 +29°C° 0 mm 5 mps 752 mmHg 62%
    18:00 +28°C° 0 mm 4 mps 753 mmHg 66%
    19:00 +27°C° 0 mm 4 mps 753 mmHg 70%
    20:00 +27°C° 0 mm 4 mps 754 mmHg 73%
    21:00 +26°C° 0 mm 3 mps 754 mmHg 76%
    22:00 +26°C° 0 mm 3 mps 754 mmHg 78%
    23:00 +26°C° 0 mm 3 mps 754 mmHg 80%

    Tomorrow, 24 September, Sunday

    Time Temperature Precipitation Wind Pressure Humidity
    00:00 +25°C° 0 mm 3 mps 754 mmHg 82%
    01:00 +25°C° 0 mm 3 mps 754 mmHg 83%
    02:00 +25°C° 0 mm 2 mps 754 mmHg 84%
    03:00 +25°C° 0 mm 2 mps 754 mmHg 86%
    04:00 +24°C° 0 mm 2 mps 754 mmHg 86%
    05:00 +24°C° 0 mm 2 mps 754 mmHg 87%
    06:00 +24°C° 0 mm 2 mps 754 mmHg 87%
    07:00 +25°C° 0 mm 2 mps 754 mmHg 80%
    08:00 +26°C° 0 mm 2 mps 755 mmHg 73%
    09:00 +27°C° 0 mm 2 mps 755 mmHg 66%
    10:00 +28°C° 0 mm 3 mps 755 mmHg 59%
    11:00 +30°C° 0 mm 3 mps 755 mmHg 52%
    12:00 +32°C° 0 mm 4 mps 754 mmHg 45%
    13:00 +32°C° 0 mm 4 mps 754 mmHg 44%
    14:00 +33°C° 0 mm 5 mps 754 mmHg 43%
    15:00 +33°C° 0 mm 5 mps 754 mmHg 41%
    16:00 +32°C° 0 mm 5 mps 753 mmHg 46%
    17:00 +30°C° 0 mm 4 mps 753 mmHg 50%
    18:00 +29°C° 0 mm 4 mps 753 mmHg 55%
    19:00 +29°C° 0 mm 4 mps 754 mmHg 58%
    20:00 +28°C° 0 mm 3 mps 754 mmHg 62%
    21:00 +28°C° 0 mm 2 mps 754 mmHg 65%
    22:00 +27°C° 0 mm 2 mps 754 mmHg 68%
    23:00 +27°C° 0 mm 2 mps 754 mmHg 71%

    Day after tomorrow, 25 September, Monday

    Time Temperature Precipitation Wind Pressure Humidity
    00:00 +26°C° 0 mm 1 mps 754 mmHg 74%
    01:00 +25°C° 0 mm 1 mps 754 mmHg 76%
    02:00 +25°C° 0 mm 1 mps 753 mmHg 79%
    03:00 +25°C° 0 mm 1 mps 753 mmHg 81%
    04:00 +24°C° 0 mm 1 mps 753 mmHg 83%
    05:00 +22°C° 0 mm 0 mps 753 mmHg 84%
    06:00 +21°C° 0 mm 0 mps 753 mmHg 86%
    07:00 +23°C° 0 mm 0 mps 753 mmHg 78%
    08:00 +24°C° 0 mm 0 mps 754 mmHg 70%
    09:00 +25°C° 0 mm 0 mps 754 mmHg 62%
    10:00 +29°C° 0 mm 1 mps 754 mmHg 55%
    11:00 +30°C° 0 mm 2 mps 754 mmHg 47%
    12:00 +32°C° 0 mm 2 mps 754 mmHg 40%
    13:00 +33°C° 0 mm 3 mps 753 mmHg 40%
    14:00 +33°C° 0 mm 3 mps 753 mmHg 40%
    15:00 +33°C° 0 mm 3 mps 752 mmHg 40%
    16:00 +31°C° 0 mm 3 mps 752 mmHg 43%
    17:00 +30°C° 0 mm 2 mps 752 mmHg 46%
    18:00 +29°C° 0 mm 1 mps 752 mmHg 49%
    19:00 +29°C° 0 mm 1 mps 753 mmHg 52%
    20:00 +28°C° 0 mm 1 mps 753 mmHg 54%
    21:00 +27°C° 0 mm 1 mps 753 mmHg 56%
    22:00 +27°C° 0 mm 1 mps 753 mmHg 58%
    23:00 +26°C° 0 mm 1 mps 752 mmHg 59%

    26 September, Tuesday

    Time Temperature Precipitation Wind Pressure Humidity
    00:00 +26°C° 0 mm 1 mps 752 mmHg 60%
    01:00 +25°C° 0 mm 1 mps 752 mmHg 61%
    02:00 +25°C° 0 mm 1 mps 752 mmHg 61%
    03:00 +25°C° 0 mm 1 mps 751 mmHg 61%
    04:00 +24°C° 0 mm 1 mps 751 mmHg 60%
    05:00 +24°C° 0 mm 1 mps 751 mmHg 59%
    06:00 +24°C° 0 mm 1 mps 751 mmHg 57%
    07:00 +26°C° 0 mm 1 mps 752 mmHg 49%
    08:00 +28°C° 0 mm 1 mps 752 mmHg 40%
    09:00 +30°C° 0 mm 1 mps 752 mmHg 32%
    10:00 +31°C° 0 mm 1 mps 752 mmHg 29%
    11:00 +32°C° 0 mm 2 mps 752 mmHg 27%
    12:00 +34°C° 0 mm 3 mps 752 mmHg 24%
    13:00 +33°C° 0 mm 3 mps 751 mmHg 26%
    14:00 +33°C° 0 mm 3 mps 751 mmHg 27%
    15:00 +33°C° 0 mm 3 mps 751 mmHg 29%
    16:00 +31°C° 0 mm 3 mps 751 mmHg 32%
    17:00 +30°C° 0 mm 2 mps 751 mmHg 35%
    18:00 +29°C° 0 mm 2 mps 752 mmHg 38%
    19:00 +29°C° 0 mm 2 mps 752 mmHg 41%
    20:00 +28°C° 0 mm 1 mps 752 mmHg 45%
    21:00 +27°C° 0 mm 1 mps 753 mmHg 48%
    22:00 +27°C° 0 mm 2 mps 753 mmHg 51%
    23:00 +26°C° 0 mm 2 mps 753 mmHg 54%

    27 September, Wednesday

    Time Temperature Precipitation Wind Pressure Humidity
    00:00 +26°C° 0 mm 2 mps 752 mmHg 56%
    01:00 +25°C° 0 mm 2 mps 752 mmHg 59%
    02:00 +24°C° 0 mm 2 mps 752 mmHg 62%
    03:00 +24°C° 0 mm 2 mps 752 mmHg 65%
    04:00 +24°C° 0 mm 2 mps 753 mmHg 66%
    05:00 +23°C° 0 mm 2 mps 753 mmHg 68%
    06:00 +23°C° 0 mm 2 mps 753 mmHg 69%
    07:00 +25°C° 0 mm 2 mps 754 mmHg 61%
    08:00 +26°C° 0 mm 2 mps 754 mmHg 54%
    09:00 +28°C° 0 mm 2 mps 754 mmHg 46%
    10:00 +29°C° 0 mm 3 mps 754 mmHg 42%
    11:00 +30°C° 0 mm 4 mps 754 mmHg 38%
    12:00 +32°C° 0 mm 4 mps 754 mmHg 34%
    13:00 +32°C° 0 mm 5 mps 754 mmHg 35%
    14:00 +32°C° 0 mm 5 mps 754 mmHg 36%
    15:00 +33°C° 0 mm 6 mps 754 mmHg 37%
    16:00 +30°C° 0 mm 6 mps 754 mmHg 41%
    17:00 +29°C° 0 mm 6 mps 754 mmHg 46%
    18:00 +28°C° 0 mm 6 mps 754 mmHg 50%
    19:00 +28°C° 0 mm 5 mps 755 mmHg 53%
    20:00 +27°C° 0 mm 5 mps 755 mmHg 56%
    21:00 +27°C° 0 mm 5 mps 756 mmHg 59%
    22:00 +26°C° 0 mm 4 mps 756 mmHg 62%
    23:00 +26°C° 0 mm 4 mps 755 mmHg 64%

    28 September, Thursday

    Time Temperature Precipitation Wind Pressure Humidity
    00:00 +25°C° 0 mm 4 mps 755 mmHg 67%
    01:00 +25°C° 0 mm 4 mps 755 mmHg 69%
    02:00 +23°C° 0 mm 4 mps 755 mmHg 71%
    03:00 +23°C° 0 mm 4 mps 755 mmHg 72%
    04:00 +23°C° 0 mm 4 mps 755 mmHg 74%
    05:00 +22°C° 0 mm 4 mps 755 mmHg 75%
    06:00 +22°C° 0 mm 4 mps 756 mmHg 77%
    07:00 +25°C° 0 mm 4 mps 756 mmHg 69%
    08:00 +26°C° 0 mm 4 mps 756 mmHg 60%
    09:00 +28°C° 0 mm 4 mps 756 mmHg 52%
    10:00 +29°C° 0 mm 5 mps 756 mmHg 46%
    11:00 +30°C° 0 mm 5 mps 756 mmHg 40%
    12:00 +33°C° 0 mm 6 mps 756 mmHg 33%
    13:00 +33°C° 0 mm 6 mps 756 mmHg 33%
    14:00 +33°C° 0 mm 7 mps 755 mmHg 32%
    15:00 +33°C° 0 mm 7 mps 755 mmHg 31%
    16:00 +32°C° 0 mm 7 mps 755 mmHg 35%
    17:00 +29°C° 0 mm 7 mps 755 mmHg 39%
    18:00 +28°C° 0 mm 6 mps 755 mmHg 43%
    19:00 +27°C° 0 mm 6 mps 756 mmHg 47%
    20:00 +27°C° 0 mm 5 mps 756 mmHg 51%
    21:00 +26°C° 0 mm 5 mps 757 mmHg 55%
    22:00 +25°C° 0 mm 5 mps 756 mmHg 58%
    23:00 +25°C° 0 mm 4 mps 756 mmHg 61%
    Show more